| time (UTC) | temp F | wind direction | speed MPH | gust MPH | rain 1hr in | rain 24hr in | rain mn in | humidity % | barometer mb |
| 20260506124200 | 57 | 206 | 1.0 | 2.0 | 0.00 | 0.00 | 0.00 | 85 | 1016.4 |
| 20260506123657 | 57 | 192 | 4.0 | 6.0 | 0.00 | 0.00 | 0.00 | 85 | 1016.8 |
| 20260506123156 | 57 | 225 | 2.0 | 2.0 | 0.00 | 0.00 | 0.00 | 85 | 1016.5 |
| 20260506122652 | 57 | 192 | 2.0 | 3.0 | 0.00 | 0.00 | 0.00 | 85 | 1016.6 |
| 20260506122150 | 57 | 208 | 2.0 | 2.0 | 0.00 | 0.00 | 0.00 | 85 | 1016.6 |
| 20260506121647 | 57 | 208 | 2.0 | 2.0 | 0.00 | 0.00 | 0.00 | 85 | 1016.6 |
| 20260506121143 | 57 | 219 | 3.0 | 5.0 | 0.00 | 0.00 | 0.00 | 85 | 1016.4 |
| 20260506120641 | 57 | 226 | 3.0 | 3.0 | 0.00 | 0.00 | 0.00 | 85 | 1016.4 |
| 20260506120138 | 57 | 190 | 1.0 | 1.0 | 0.00 | 0.00 | 0.00 | 85 | 1016.6 |
| 20260506115637 | 57 | 223 | 3.0 | 3.0 | 0.00 | 0.00 | 0.00 | 84 | 1016.6 |
| 20260506115134 | 57 | 218 | 3.0 | 3.0 | 0.00 | 0.00 | 0.00 | 84 | 1016.4 |
| 20260506114632 | 57 | 216 | 3.0 | 5.0 | 0.00 | 0.00 | 0.00 | 84 | 1016.4 |
| 20260506114130 | 57 | 219 | 3.0 | 3.0 | 0.00 | 0.00 | 0.00 | 84 | 1016.6 |
| 20260506113628 | 57 | 218 | 1.0 | 2.0 | 0.00 | 0.00 | 0.00 | 84 | 1016.3 |
| 20260506113125 | 57 | 205 | 2.0 | 2.0 | 0.00 | 0.00 | 0.00 | 84 | 1016.3 |
| 20260506112621 | 57 | 204 | 4.0 | 6.0 | 0.00 | 0.00 | 0.00 | 84 | 1016.0 |
| 20260506112119 | 57 | 202 | 1.0 | 2.0 | 0.00 | 0.00 | 0.00 | 84 | 1016.2 |
| 20260506111616 | 57 | 208 | 2.0 | 3.0 | 0.00 | 0.00 | 0.00 | 83 | 1016.3 |
| 20260506111114 | 57 | 222 | 2.0 | 2.0 | 0.00 | 0.00 | 0.00 | 83 | 1016.0 |
| 20260506110611 | 57 | 195 | 3.0 | 5.0 | 0.00 | 0.00 | 0.00 | 83 | 1016.2 |
| 20260506110108 | 57 | 209 | 3.0 | 5.0 | 0.00 | 0.00 | 0.00 | 83 | 1016.0 |
| 20260506105604 | 57 | 227 | 3.0 | 6.0 | 0.00 | 0.00 | 0.00 | 83 | 1016.1 |
| 20260506105101 | 57 | 207 | 4.0 | 5.0 | 0.00 | 0.00 | 0.00 | 83 | 1015.9 |
| 20260506104600 | 57 | 186 | 4.0 | 5.0 | 0.00 | 0.00 | 0.00 | 83 | 1016.0 |
| 20260506104057 | 57 | 198 | 2.0 | 2.0 | 0.00 | 0.00 | 0.00 | 83 | 1016.0 |
| 20260506103554 | 57 | 215 | 4.0 | 5.0 | 0.00 | 0.00 | 0.00 | 83 | 1015.7 |
| 20260506103050 | 57 | 220 | 3.0 | 5.0 | 0.00 | 0.00 | 0.00 | 83 | 1015.8 |
| 20260506102549 | 57 | 207 | 4.0 | 6.0 | 0.00 | 0.00 | 0.00 | 83 | 1015.8 |
| 20260506102046 | 57 | 208 | 2.0 | 3.0 | 0.00 | 0.00 | 0.00 | 83 | 1015.5 |
| 20260506101543 | 57 | 192 | 2.0 | 2.0 | 0.00 | 0.00 | 0.00 | 82 | 1015.5 |
| 20260506101040 | 58 | 236 | 2.0 | 2.0 | 0.00 | 0.00 | 0.00 | 82 | 1015.7 |
| 20260506100538 | 58 | 211 | 1.0 | 2.0 | 0.00 | 0.00 | 0.00 | 82 | 1015.5 |
| 20260506100036 | 58 | 210 | 2.0 | 2.0 | 0.00 | 0.00 | 0.00 | 82 | 1015.8 |
| 20260506095535 | 58 | 236 | 3.0 | 3.0 | 0.00 | 0.00 | 0.00 | 82 | 1015.5 |
| 20260506095030 | 58 | 212 | 1.0 | 1.0 | 0.00 | 0.00 | 0.00 | 82 | 1015.5 |
| 20260506094528 | 58 | 199 | 2.0 | 2.0 | 0.00 | 0.00 | 0.00 | 82 | 1015.7 |
| 20260506094026 | 58 | 210 | 3.0 | 3.0 | 0.00 | 0.00 | 0.00 | 82 | 1015.5 |
| 20260506093524 | 58 | 211 | 3.0 | 5.0 | 0.00 | 0.00 | 0.00 | 82 | 1015.6 |
| 20260506093021 | 58 | 215 | 2.0 | 2.0 | 0.00 | 0.00 | 0.00 | 82 | 1015.7 |
| 20260506092519 | 58 | 209 | 3.0 | 3.0 | 0.00 | 0.00 | 0.00 | 82 | 1015.8 |
| 20260506092015 | 58 | 240 | 4.0 | 6.0 | 0.00 | 0.00 | 0.00 | 82 | 1015.7 |
| 20260506091514 | 58 | 194 | 2.0 | 2.0 | 0.00 | 0.00 | 0.00 | 82 | 1015.8 |
| 20260506091010 | 58 | 235 | 4.0 | 6.0 | 0.00 | 0.00 | 0.00 | 82 | 1015.7 |
| 20260506090509 | 58 | 197 | 4.0 | 6.0 | 0.00 | 0.00 | 0.00 | 81 | 1015.8 |
| 20260506090004 | 58 | 214 | 1.0 | 1.0 | 0.00 | 0.00 | 0.00 | 81 | 1015.7 |
| 20260506085502 | 58 | 224 | 3.0 | 3.0 | 0.00 | 0.00 | 0.00 | 81 | 1015.6 |
| 20260506084958 | 58 | 213 | 2.0 | 2.0 | 0.00 | 0.00 | 0.00 | 81 | 1015.6 |
| 20260506084455 | 58 | 200 | 3.0 | 6.0 | 0.00 | 0.00 | 0.00 | 81 | 1015.7 |
| 20260506083951 | 58 | 187 | 1.0 | 2.0 | 0.00 | 0.00 | 0.00 | 81 | 1015.5 |
| 20260506083448 | 58 | 207 | 3.0 | 3.0 | 0.00 | 0.00 | 0.00 | 81 | 1015.6 |
| 20260506082945 | 58 | 199 | 5.0 | 7.0 | 0.00 | 0.00 | 0.00 | 81 | 1015.7 |
| 20260506082442 | 58 | 193 | 3.0 | 3.0 | 0.00 | 0.00 | 0.00 | 81 | 1015.6 |
| 20260506081938 | 58 | 203 | 5.0 | 7.0 | 0.00 | 0.00 | 0.00 | 81 | 1015.6 |
| 20260506081437 | 58 | 210 | 5.0 | 6.0 | 0.00 | 0.00 | 0.00 | 81 | 1015.7 |
| 20260506080934 | 58 | 196 | 4.0 | 5.0 | 0.00 | 0.00 | 0.00 | 81 | 1015.8 |
| 20260506080430 | 58 | 216 | 3.0 | 5.0 | 0.00 | 0.00 | 0.00 | 81 | 1015.7 |
| 20260506073414 | 58 | 240 | 3.0 | 3.0 | 0.00 | 0.00 | 0.00 | 79 | 1015.6 |
| 20260506072912 | 58 | 218 | 4.0 | 5.0 | 0.00 | 0.00 | 0.00 | 79 | 1015.3 |
| 20260506072409 | 58 | 215 | 3.0 | 5.0 | 0.00 | 0.00 | 0.00 | 79 | 1015.2 |
| 20260506071906 | 58 | 190 | 4.0 | 5.0 | 0.00 | 0.00 | 0.00 | 79 | 1015.3 |
| 20260506071405 | 58 | 230 | 2.0 | 3.0 | 0.00 | 0.00 | 0.00 | 79 | 1015.2 |
| 20260506070901 | 59 | 219 | 3.0 | 5.0 | 0.00 | 0.00 | 0.00 | 79 | 1015.2 |
| 20260506070357 | 59 | 191 | 3.0 | 5.0 | 0.00 | 0.00 | 0.00 | 79 | 1015.1 |
| 20260506062335 | 58 | 227 | 3.0 | 3.0 | 0.00 | 0.04 | 0.04 | 79 | 1014.8 |
| 20260506061831 | 58 | 197 | 3.0 | 3.0 | 0.00 | 0.04 | 0.04 | 79 | 1014.7 |
| 20260506061328 | 58 | 235 | 3.0 | 3.0 | 0.00 | 0.04 | 0.04 | 79 | 1014.6 |
| 20260506060826 | 58 | 209 | 5.0 | 7.0 | 0.00 | 0.04 | 0.04 | 79 | 1014.6 |
| 20260506060324 | 59 | 215 | 3.0 | 3.0 | 0.00 | 0.04 | 0.04 | 79 | 1014.6 |
| 20260506051255 | 59 | 229 | 5.0 | 6.0 | 0.00 | 0.04 | 0.04 | 78 | 1014.5 |
| 20260506050753 | 59 | 188 | 5.0 | 7.0 | 0.00 | 0.04 | 0.04 | 78 | 1014.3 |
| 20260506050250 | 59 | 240 | 4.0 | 8.0 | 0.00 | 0.04 | 0.04 | 78 | 1014.1 |
| 20260506044741 | 59 | 182 | 2.0 | 2.0 | 0.00 | 0.04 | 0.04 | 78 | 1013.8 |
| 20260506044238 | 59 | 202 | 2.0 | 3.0 | 0.00 | 0.04 | 0.04 | 79 | 1013.9 |
| 20260506043736 | 59 | 168 | 3.0 | 3.0 | 0.00 | 0.04 | 0.04 | 79 | 1013.8 |
| 20260506043233 | 59 | 202 | 3.0 | 3.0 | 0.00 | 0.04 | 0.04 | 79 | 1013.8 |
| 20260506042732 | 59 | 210 | 4.0 | 5.0 | 0.00 | 0.04 | 0.04 | 79 | 1013.7 |
| 20260506042230 | 60 | 176 | 4.0 | 8.0 | 0.00 | 0.04 | 0.04 | 78 | 1013.7 |
| 20260506041728 | 60 | 193 | 5.0 | 6.0 | 0.00 | 0.04 | 0.04 | 77 | 1013.7 |
| 20260506041225 | 60 | 216 | 3.0 | 6.0 | 0.00 | 0.04 | 0.04 | 77 | 1013.8 |
| 20260506040722 | 60 | 208 | 6.0 | 7.0 | 0.00 | 0.04 | 0.04 | 77 | 1013.8 |
| 20260506040219 | 60 | 200 | 4.0 | 6.0 | 0.00 | 0.04 | 0.04 | 77 | 1013.7 |
| 20260506035716 | 60 | 225 | 4.0 | 6.0 | 0.00 | 0.04 | 0.04 | 77 | 1013.6 |
| 20260506035213 | 60 | 239 | 5.0 | 7.0 | 0.00 | 0.04 | 0.04 | 77 | 1013.7 |
| 20260506034709 | 60 | 204 | 3.0 | 6.0 | 0.00 | 0.04 | 0.04 | 77 | 1013.4 |
| 20260506034207 | 60 | 192 | 3.0 | 3.0 | 0.00 | 0.04 | 0.04 | 77 | 1013.4 |
| 20260506033704 | 60 | 222 | 5.0 | 8.0 | 0.00 | 0.04 | 0.04 | 77 | 1013.7 |
| 20260506033201 | 60 | 247 | 7.0 | 9.0 | 0.00 | 0.04 | 0.04 | 76 | 1013.3 |
| 20260506032658 | 61 | 199 | 5.0 | 7.0 | 0.00 | 0.04 | 0.04 | 76 | 1013.2 |
| 20260506032155 | 61 | 208 | 4.0 | 6.0 | 0.00 | 0.04 | 0.04 | 76 | 1013.0 |
| 20260506031651 | 61 | 204 | 4.0 | 6.0 | 0.00 | 0.04 | 0.04 | 76 | 1013.0 |
| 20260506031148 | 61 | 253 | 4.0 | 8.0 | 0.00 | 0.04 | 0.04 | 76 | 1013.2 |
| 20260506030647 | 61 | 187 | 5.0 | 7.0 | 0.00 | 0.04 | 0.04 | 76 | 1012.9 |
| 20260506030144 | 62 | 183 | 3.0 | 3.0 | 0.00 | 0.04 | 0.04 | 77 | 1013.0 |
| 20260506025641 | 62 | 194 | 3.0 | 3.0 | 0.00 | 0.04 | 0.04 | 76 | 1012.8 |
| 20260506025136 | 62 | 208 | 5.0 | 6.0 | 0.00 | 0.04 | 0.04 | 76 | 1012.8 |
| 20260506024634 | 62 | 239 | 4.0 | 6.0 | 0.00 | 0.04 | 0.04 | 76 | 1012.7 |
| 20260506024130 | 62 | 229 | 5.0 | 9.0 | 0.00 | 0.04 | 0.04 | 75 | 1012.7 |
| 20260506023627 | 62 | 202 | 4.0 | 7.0 | 0.00 | 0.04 | 0.04 | 75 | 1012.9 |
| 20260506023124 | 62 | 255 | 4.0 | 6.0 | 0.00 | 0.04 | 0.04 | 76 | 1012.8 |
| 20260506022621 | 62 | 226 | 5.0 | 6.0 | 0.00 | 0.04 | 0.04 | 75 | 1012.8 |
| 20260506022119 | 62 | 244 | 6.0 | 7.0 | 0.00 | 0.04 | 0.04 | 75 | 1012.5 |
| 20260506021616 | 63 | 211 | 5.0 | 7.0 | 0.00 | 0.04 | 0.04 | 75 | 1012.6 |
| 20260506021113 | 63 | 208 | 3.0 | 3.0 | 0.00 | 0.04 | 0.04 | 75 | 1012.4 |
| 20260506020610 | 63 | 232 | 2.0 | 2.0 | 0.00 | 0.04 | 0.04 | 74 | 1012.5 |
| 20260506020108 | 63 | 205 | 3.0 | 5.0 | 0.00 | 0.04 | 0.04 | 74 | 1012.7 |
| 20260506015605 | 63 | 216 | 3.0 | 5.0 | 0.00 | 0.04 | 0.04 | 74 | 1012.7 |
| 20260506015102 | 63 | 218 | 1.0 | 2.0 | 0.00 | 0.04 | 0.04 | 74 | 1012.5 |
| 20260506014600 | 64 | 252 | 3.0 | 5.0 | 0.00 | 0.04 | 0.04 | 73 | 1012.4 |
| 20260506014055 | 64 | 221 | 7.0 | 8.0 | 0.00 | 0.04 | 0.04 | 74 | 1012.5 |
| 20260506013554 | 64 | 205 | 5.0 | 6.0 | 0.00 | 0.04 | 0.04 | 74 | 1012.6 |
| 20260506013050 | 64 | 199 | 7.0 | 8.0 | 0.00 | 0.04 | 0.04 | 73 | 1012.4 |
| 20260506012546 | 64 | 207 | 5.0 | 8.0 | 0.00 | 0.04 | 0.04 | 73 | 1012.6 |
| 20260506012043 | 65 | 186 | 3.0 | 5.0 | 0.00 | 0.04 | 0.04 | 73 | 1012.5 |
| 20260506011541 | 65 | 212 | 3.0 | 6.0 | 0.00 | 0.04 | 0.04 | 72 | 1012.6 |
| 20260506011037 | 65 | 217 | 6.0 | 9.0 | 0.00 | 0.04 | 0.04 | 71 | 1012.4 |
| 20260506010537 | 66 | 186 | 3.0 | 5.0 | 0.00 | 0.04 | 0.04 | 71 | 1012.2 |
| 20260506010033 | 66 | 230 | 4.0 | 6.0 | 0.00 | 0.04 | 0.04 | 71 | 1012.2 |
| 20260506005530 | 66 | 180 | 7.0 | 9.0 | 0.00 | 0.04 | 0.04 | 70 | 1012.0 |
| 20260506005026 | 66 | 219 | 2.0 | 3.0 | 0.00 | 0.04 | 0.04 | 70 | 1012.2 |
| 20260506004523 | 66 | 202 | 4.0 | 7.0 | 0.00 | 0.04 | 0.04 | 69 | 1012.2 |
| 20260506004020 | 67 | 189 | 3.0 | 3.0 | 0.00 | 0.04 | 0.04 | 69 | 1012.3 |
| 20260506003516 | 66 | 185 | 4.0 | 6.0 | 0.00 | 0.04 | 0.04 | 70 | 1012.2 |
| 20260506003012 | 66 | 185 | 3.0 | 3.0 | 0.00 | 0.04 | 0.04 | 70 | 1012.3 |
| 20260506002508 | 66 | 239 | 3.0 | 3.0 | 0.00 | 0.04 | 0.04 | 70 | 1012.2 |
| 20260506002004 | 66 | 185 | 4.0 | 5.0 | 0.00 | 0.04 | 0.04 | 71 | 1012.2 |
| 20260506001501 | 66 | 233 | 3.0 | 5.0 | 0.00 | 0.04 | 0.04 | 70 | 1012.1 |
| 20260506000958 | 67 | 193 | 3.0 | 3.0 | 0.00 | 0.04 | 0.04 | 70 | 1012.3 |
| 20260506000455 | 66 | 222 | 5.0 | 7.0 | 0.00 | 0.04 | 0.04 | 71 | 1012.1 |
| 20260505235952 | 66 | 227 | 3.0 | 3.0 | 0.00 | 0.04 | 0.04 | 71 | 1012.3 |
| 20260505235451 | 66 | 202 | 4.0 | 9.0 | 0.00 | 0.04 | 0.04 | 70 | 1012.2 |
| 20260505234947 | 66 | 250 | 7.0 | 9.0 | 0.00 | 0.04 | 0.04 | 70 | 1012.0 |
| 20260505234444 | 66 | 209 | 3.0 | 3.0 | 0.00 | 0.04 | 0.04 | 70 | 1012.1 |
| 20260505233941 | 66 | 245 | 5.0 | 6.0 | 0.00 | 0.04 | 0.04 | 70 | 1012.1 |
| 20260505233439 | 67 | 248 | 4.0 | 6.0 | 0.00 | 0.04 | 0.04 | 69 | 1012.3 |
| 20260505232936 | 66 | 221 | 3.0 | 3.0 | 0.00 | 0.04 | 0.04 | 70 | 1012.2 |
| 20260505232434 | 67 | 246 | 2.0 | 3.0 | 0.00 | 0.04 | 0.04 | 70 | 1012.4 |
| 20260505231931 | 66 | 275 | 4.0 | 5.0 | 0.00 | 0.04 | 0.04 | 71 | 1012.3 |
| 20260505231428 | 65 | 209 | 3.0 | 5.0 | 0.00 | 0.04 | 0.04 | 73 | 1012.4 |
| 20260505230926 | 64 | 183 | 4.0 | 6.0 | 0.00 | 0.04 | 0.04 | 73 | 1012.4 |
| 20260505230424 | 65 | 232 | 4.0 | 5.0 | 0.00 | 0.04 | 0.04 | 73 | 1012.6 |
| 20260505225920 | 64 | 200 | 3.0 | 5.0 | 0.00 | 0.04 | 0.04 | 73 | 1012.4 |
| 20260505225417 | 65 | 211 | 4.0 | 5.0 | 0.00 | 0.04 | 0.04 | 73 | 1012.6 |
| 20260505224912 | 65 | 232 | 4.0 | 6.0 | 0.00 | 0.04 | 0.04 | 73 | 1012.4 |
| 20260505224410 | 65 | 199 | 4.0 | 5.0 | 0.00 | 0.04 | 0.04 | 73 | 1012.4 |
| 20260505223907 | 66 | 201 | 3.0 | 3.0 | 0.00 | 0.04 | 0.04 | 71 | 1012.5 |
| 20260505223404 | 66 | 187 | 2.0 | 3.0 | 0.00 | 0.04 | 0.04 | 72 | 1012.5 |
| 20260505222900 | 66 | 172 | 4.0 | 6.0 | 0.00 | 0.04 | 0.04 | 71 | 1012.5 |
| 20260505222356 | 66 | 247 | 3.0 | 3.0 | 0.00 | 0.04 | 0.04 | 71 | 1012.5 |
| 20260505221853 | 66 | 204 | 2.0 | 3.0 | 0.00 | 0.04 | 0.04 | 71 | 1012.7 |
| 20260505221350 | 65 | 105 | 3.0 | 3.0 | 0.00 | 0.04 | 0.04 | 71 | 1012.7 |
| 20260505220847 | 65 | 157 | 3.0 | 3.0 | 0.00 | 0.04 | 0.04 | 72 | 1012.9 |
| 20260505220344 | 66 | 158 | 4.0 | 5.0 | 0.00 | 0.04 | 0.04 | 70 | 1012.8 |
| 20260505215841 | 65 | 192 | 3.0 | 5.0 | 0.00 | 0.04 | 0.04 | 72 | 1012.8 |
| 20260505215339 | 65 | 161 | 2.0 | 2.0 | 0.00 | 0.04 | 0.04 | 72 | 1012.8 |
| 20260505214837 | 65 | 204 | 4.0 | 5.0 | 0.00 | 0.04 | 0.04 | 73 | 1012.8 |
| 20260505214334 | 65 | 207 | 3.0 | 3.0 | 0.00 | 0.04 | 0.04 | 74 | 1012.7 |
| 20260505213831 | 66 | 200 | 4.0 | 6.0 | 0.00 | 0.04 | 0.04 | 72 | 1012.9 |
| 20260505213329 | 65 | 203 | 4.0 | 6.0 | 0.00 | 0.04 | 0.04 | 75 | 1012.9 |
| 20260505212825 | 64 | 252 | 3.0 | 5.0 | 0.00 | 0.04 | 0.04 | 75 | 1012.9 |
| 20260505212322 | 65 | 181 | 4.0 | 5.0 | 0.00 | 0.04 | 0.04 | 74 | 1012.8 |
| 20260505211818 | 65 | 219 | 2.0 | 2.0 | 0.00 | 0.04 | 0.04 | 71 | 1012.9 |
| 20260505211316 | 65 | 235 | 0.0 | 1.0 | 0.00 | 0.04 | 0.04 | 71 | 1012.9 |
| 20260505210812 | 67 | 342 | 3.0 | 3.0 | 0.00 | 0.04 | 0.04 | 70 | 1012.7 |
| 20260505210309 | 65 | 184 | 2.0 | 3.0 | 0.00 | 0.04 | 0.04 | 71 | 1012.9 |
| 20260505205806 | 65 | 318 | 2.0 | 2.0 | 0.00 | 0.04 | 0.04 | 70 | 1012.8 |
| 20260505205305 | 65 | 328 | 4.0 | 5.0 | 0.00 | 0.04 | 0.04 | 69 | 1013.1 |
| 20260505204801 | 66 | 89 | 2.0 | 2.0 | 0.00 | 0.04 | 0.04 | 71 | 1013.0 |
| 20260505204259 | 65 | 177 | 1.0 | 2.0 | 0.00 | 0.04 | 0.04 | 72 | 1013.2 |
| 20260505203756 | 64 | 306 | 3.0 | 3.0 | 0.00 | 0.04 | 0.04 | 74 | 1012.9 |
| 20260505203253 | 65 | 64 | 3.0 | 5.0 | 0.00 | 0.04 | 0.04 | 74 | 1013.1 |
| 20260505202749 | 64 | 36 | 1.0 | 2.0 | 0.00 | 0.04 | 0.04 | 74 | 1013.1 |
| 20260505202245 | 65 | 107 | 2.0 | 2.0 | 0.00 | 0.04 | 0.04 | 75 | 1013.2 |
| 20260505201741 | 65 | 47 | 1.0 | 2.0 | 0.00 | 0.04 | 0.04 | 76 | 1013.3 |
| 20260505201239 | 64 | 275 | 1.0 | 1.0 | 0.00 | 0.04 | 0.04 | 75 | 1013.1 |
| 20260505200738 | 64 | 98 | 1.0 | 2.0 | 0.00 | 0.04 | 0.04 | 77 | 1013.0 |
| 20260505200235 | 64 | 52 | 4.0 | 6.0 | 0.00 | 0.04 | 0.04 | 76 | 1013.2 |
| 20260505195729 | 62 | 5 | 2.0 | 2.0 | 0.00 | 0.04 | 0.04 | 79 | 1013.2 |
| 20260505195227 | 62 | 49 | 1.0 | 1.0 | 0.00 | 0.04 | 0.04 | 81 | 1013.2 |
| 20260505194724 | 62 | 29 | 2.0 | 2.0 | 0.00 | 0.04 | 0.04 | 81 | 1013.1 |
| 20260505194221 | 61 | 159 | 0.0 | 1.0 | 0.00 | 0.04 | 0.04 | 80 | 1013.4 |
| 20260505193717 | 61 | 283 | 1.0 | 1.0 | 0.00 | 0.04 | 0.04 | 81 | 1013.3 |
| 20260505193214 | 61 | 52 | 1.0 | 2.0 | 0.00 | 0.04 | 0.04 | 80 | 1013.3 |
| 20260505192713 | 61 | 272 | 0.0 | 0.0 | 0.00 | 0.04 | 0.04 | 82 | 1013.3 |
| 20260505192210 | 60 | 309 | 1.0 | 1.0 | 0.00 | 0.04 | 0.04 | 83 | 1013.4 |
| 20260505191708 | 60 | 305 | 2.0 | 2.0 | 0.00 | 0.04 | 0.04 | 84 | 1013.4 |
| 20260505191206 | 60 | 284 | 1.0 | 2.0 | 0.00 | 0.04 | 0.04 | 84 | 1013.5 |
| 20260505190702 | 59 | 318 | 4.0 | 5.0 | 0.00 | 0.04 | 0.04 | 84 | 1013.3 |
| 20260505190201 | 60 | 289 | 1.0 | 2.0 | 0.00 | 0.04 | 0.04 | 84 | 1013.3 |
| 20260505185659 | 60 | 333 | 2.0 | 5.0 | 0.00 | 0.04 | 0.04 | 84 | 1013.3 |
| 20260505185155 | 60 | 339 | 2.0 | 3.0 | 0.00 | 0.04 | 0.04 | 84 | 1013.0 |
| 20260505184651 | 60 | 279 | 0.0 | 1.0 | 0.00 | 0.04 | 0.04 | 85 | 1013.2 |
| 20260505184148 | 60 | 279 | 1.0 | 1.0 | 0.00 | 0.04 | 0.04 | 85 | 1013.3 |
| 20260505183645 | 59 | 279 | 0.0 | 0.0 | 0.00 | 0.04 | 0.04 | 85 | 1013.0 |
| 20260505183143 | 59 | 297 | 4.0 | 5.0 | 0.00 | 0.04 | 0.04 | 84 | 1013.1 |
| 20260505182639 | 59 | 349 | 5.0 | 7.0 | 0.00 | 0.04 | 0.04 | 84 | 1013.2 |
| 20260505182136 | 59 | 312 | 3.0 | 5.0 | 0.00 | 0.04 | 0.04 | 84 | 1013.2 |
| 20260505181632 | 59 | 348 | 2.0 | 2.0 | 0.00 | 0.04 | 0.04 | 84 | 1012.8 |
| 20260505181130 | 59 | 320 | 6.0 | 7.0 | 0.00 | 0.04 | 0.04 | 85 | 1013.1 |
| 20260505180626 | 59 | 307 | 5.0 | 6.0 | 0.00 | 0.04 | 0.04 | 86 | 1013.1 |
| 20260505180124 | 59 | 296 | 4.0 | 5.0 | 0.00 | 0.04 | 0.04 | 86 | 1013.1 |
| 20260505175619 | 58 | 326 | 4.0 | 6.0 | 0.00 | 0.04 | 0.04 | 87 | 1013.1 |
| 20260505175116 | 58 | 333 | 5.0 | 6.0 | 0.00 | 0.04 | 0.04 | 87 | 1013.1 |
| 20260505174613 | 58 | 310 | 3.0 | 3.0 | 0.00 | 0.04 | 0.04 | 88 | 1013.0 |
| 20260505174109 | 58 | 342 | 6.0 | 7.0 | 0.00 | 0.04 | 0.04 | 88 | 1013.1 |
| 20260505173606 | 58 | 331 | 1.0 | 3.0 | 0.00 | 0.04 | 0.04 | 88 | 1012.8 |
| 20260505173102 | 59 | 312 | 5.0 | 7.0 | 0.00 | 0.04 | 0.04 | 87 | 1012.6 |
| 20260505172600 | 59 | 315 | 1.0 | 1.0 | 0.00 | 0.04 | 0.04 | 87 | 1012.8 |
| 20260505172057 | 58 | 47 | 1.0 | 1.0 | 0.00 | 0.04 | 0.04 | 86 | 1012.6 |
| 20260505171557 | 59 | 349 | 4.0 | 5.0 | 0.00 | 0.04 | 0.04 | 86 | 1012.6 |
| 20260505171054 | 59 | 310 | 1.0 | 1.0 | 0.00 | 0.04 | 0.04 | 86 | 1012.7 |
| 20260505170551 | 58 | 22 | 1.0 | 1.0 | 0.00 | 0.04 | 0.04 | 86 | 1012.7 |
| 20260505170048 | 59 | 131 | 2.0 | 2.0 | 0.00 | 0.04 | 0.04 | 86 | 1012.7 |
| 20260505165543 | 59 | 50 | 1.0 | 1.0 | 0.00 | 0.04 | 0.04 | 86 | 1012.8 |
| 20260505165039 | 59 | 105 | 0.0 | 1.0 | 0.00 | 0.04 | 0.04 | 86 | 1012.6 |
| 20260505164535 | 59 | 293 | 1.0 | 1.0 | 0.00 | 0.04 | 0.04 | 86 | 1012.6 |
| 20260505164033 | 58 | 222 | 0.0 | 1.0 | 0.00 | 0.04 | 0.04 | 87 | 1012.5 |
| 20260505163531 | 58 | 305 | 2.0 | 2.0 | 0.00 | 0.04 | 0.04 | 87 | 1012.7 |
| 20260505163028 | 58 | 261 | 0.0 | 0.0 | 0.00 | 0.04 | 0.04 | 87 | 1012.7 |
| 20260505162521 | 57 | 293 | 0.0 | 1.0 | 0.00 | 0.04 | 0.04 | 87 | 1012.6 |
| 20260505162018 | 57 | 282 | 0.0 | 1.0 | 0.00 | 0.04 | 0.04 | 87 | 1012.5 |
| 20260505161515 | 58 | 225 | 0.0 | 0.0 | 0.00 | 0.04 | 0.04 | 88 | 1012.4 |
| 20260505161012 | 57 | 229 | 1.0 | 1.0 | 0.00 | 0.04 | 0.04 | 88 | 1012.5 |
| 20260505160510 | 57 | 271 | 0.0 | 1.0 | 0.00 | 0.04 | 0.04 | 88 | 1012.4 |
| 20260505152946 | 56 | 266 | 1.0 | 1.0 | 0.00 | 0.04 | 0.04 | 91 | 1012.2 |
| 20260505152443 | 56 | 189 | 1.0 | 2.0 | 0.00 | 0.04 | 0.04 | 92 | 1012.1 |
| 20260505151938 | 56 | 214 | 0.0 | 0.0 | 0.00 | 0.04 | 0.04 | 92 | 1011.9 |
| 20260505151434 | 55 | 219 | 0.0 | 1.0 | 0.00 | 0.04 | 0.04 | 92 | 1011.8 |
| 20260505150931 | 55 | 218 | 0.0 | 0.0 | 0.00 | 0.04 | 0.04 | 92 | 1012.2 |
| 20260505150428 | 55 | 211 | 1.0 | 1.0 | 0.00 | 0.04 | 0.04 | 93 | 1011.9 |
| 20260505140358 | 54 | 209 | 2.0 | 2.0 | 0.00 | 0.04 | 0.04 | 94 | 1011.4 |
| 20260505124812 | 53 | 217 | 1.0 | 2.0 | 0.00 | 0.04 | 0.04 | 96 | 1010.9 |
| 20260505124309 | 53 | 202 | 2.0 | 2.0 | 0.00 | 0.04 | 0.04 | 96 | 1011.0 |